Starlink 30959

operational
NORAD ID: 58442 Int'l Des: 2023-183 Owner: SPXS Country: US Constellation: starlink
LEOCIRCULAR

关于 Starlink 30959

正在加载描述...

实时位置

正在加载3D地球...

即将过境

高度历史

Altitude vs Time

uPlot chart will show altitude changes over time

两行轨道根数

1 58442U 23183F 26035.49470256 .00001008 00000-0 89679-4 0 9995
2 58442 43.0023 223.4598 0001318 248.1444 111.9258 15.02547171121723
Epoch: Feb 4, 2026 • Age: 10 hours

当前状态

高度 559.2 km
速度 7.58 km/s
星下点 -5.07°S, 62.69°W
发射日期 Nov 28, 2023
运行时间 2.1 years
类型 internet

技术详情

分类 Payload
质量 730.00 kg
干质量 700.00 kg
总质量 730.00 kg
长度 0.30 m
直径 4.10 m
跨度 29.00 m
形状 Box + pan
制造商 SPXS
平台类型 Starlink V2M
阶段状态 In Orbit
所有者/国家 SPXS/US

大型星座

Loading constellations...